Time,TemperatureF,DewpointF,PressureIn,WindDirection,WindDirectionDegrees,WindSpeedMPH,WindSpeedGustMPH,Humidity,HourlyPrecipIn,Conditions,Clouds,dailyrainin,SoftwareType,DateUTC
2013-01-20 00:02:00,7.0,1.0,30.32,West,271,8.0,25.0,77,0.00,,,0.00,,2013-01-20 06:02:00,
2013-01-20 00:12:00,7.0,1.0,30.32,West,271,8.0,25.0,77,0.00,,,0.00,,2013-01-20 06:12:00,
2013-01-20 00:22:00,6.0,1.0,30.32,NW,306,5.0,16.0,78,0.00,,,0.00,,2013-01-20 06:22:00,
2013-01-20 00:33:00,6.0,1.0,30.32,West,277,8.0,25.0,80,0.00,,,0.00,,2013-01-20 06:33:00,
2013-01-20 00:42:00,6.0,1.0,30.32,West,277,8.0,25.0,80,0.00,,,0.00,,2013-01-20 06:42:00,
2013-01-20 00:53:00,6.0,1.0,30.33,NW,312,5.0,28.0,80,0.00,,,0.00,,2013-01-20 06:53:00,
2013-01-20 01:02:00,6.0,1.0,30.33,WNW,284,7.0,22.0,79,0.00,,,0.00,,2013-01-20 07:02:00,
2013-01-20 01:12:00,6.0,1.0,30.33,WNW,284,7.0,22.0,79,0.00,,,0.00,,2013-01-20 07:12:00,
2013-01-20 01:22:00,6.0,0.0,30.34,West,279,5.0,17.0,77,0.00,,,0.00,,2013-01-20 07:22:00,
2013-01-20 01:32:00,6.0,1.0,30.35,WNW,285,4.0,18.0,79,0.00,,,0.00,,2013-01-20 07:32:00,
2013-01-20 01:42:00,6.0,1.0,30.35,WNW,285,4.0,18.0,79,0.00,,,0.00,,2013-01-20 07:42:00,
2013-01-20 01:52:00,5.0,0.0,30.36,WNW,298,8.0,16.0,78,0.00,,,0.00,,2013-01-20 07:52:00,
2013-01-20 02:02:00,5.0,0.0,30.35,WNW,297,5.0,12.0,79,0.00,,,0.00,,2013-01-20 08:02:00,
2013-01-20 02:12:00,5.0,0.0,30.35,WNW,297,5.0,12.0,79,0.00,,,0.00,,2013-01-20 08:12:00,
2013-01-20 02:22:00,5.0,0.0,30.36,WNW,298,7.0,19.0,79,0.00,,,0.00,,2013-01-20 08:22:00,
2013-01-20 02:32:00,5.0,0.0,30.37,NW,306,8.0,28.0,78,0.00,,,0.00,,2013-01-20 08:32:00,
2013-01-20 02:42:00,5.0,0.0,30.37,NW,306,8.0,28.0,78,0.00,,,0.00,,2013-01-20 08:42:00,
2013-01-20 02:52:00,5.0,0.0,30.38,WNW,291,5.0,24.0,78,0.00,,,0.00,,2013-01-20 08:52:00,
2013-01-20 03:02:00,4.0,-1.0,30.38,WNW,296,9.0,22.0,79,0.00,,,0.00,,2013-01-20 09:02:00,
2013-01-20 03:12:00,4.0,-1.0,30.38,WNW,296,9.0,22.0,79,0.00,,,0.00,,2013-01-20 09:12:00,
2013-01-20 03:22:00,4.0,-1.0,30.38,NW,306,6.0,18.0,79,0.00,,,0.00,,2013-01-20 09:22:00,
2013-01-20 03:33:00,4.0,-1.0,30.38,WNW,298,6.0,16.0,79,0.00,,,0.00,,2013-01-20 09:33:00,
2013-01-20 03:42:00,4.0,-1.0,30.38,WNW,298,6.0,16.0,79,0.00,,,0.00,,2013-01-20 09:42:00,
2013-01-20 03:53:00,4.0,-1.0,30.38,NNW,335,4.0,19.0,81,0.00,,,0.00,,2013-01-20 09:53:00,
2013-01-20 04:02:00,4.0,-1.0,30.37,NW,316,3.0,12.0,80,0.00,,,0.00,,2013-01-20 10:02:00,
2013-01-20 04:12:00,4.0,-1.0,30.37,NW,316,3.0,12.0,80,0.00,,,0.00,,2013-01-20 10:12:00,
2013-01-20 04:22:00,3.0,-2.0,30.38,NW,307,4.0,12.0,80,0.00,,,0.00,,2013-01-20 10:22:00,
2013-01-20 04:32:00,3.0,-2.0,30.38,NNW,330,4.0,15.0,80,0.00,,,0.00,,2013-01-20 10:32:00,
2013-01-20 04:42:00,3.0,-2.0,30.38,NNW,330,4.0,15.0,80,0.00,,,0.00,,2013-01-20 10:42:00,
2013-01-20 04:52:00,3.0,-2.0,30.37,NW,310,4.0,12.0,79,0.00,,,0.00,,2013-01-20 10:52:00,
2013-01-20 05:02:00,3.0,-2.0,30.37,WNW,284,3.0,10.0,80,0.00,,,0.00,,2013-01-20 11:02:00,
2013-01-20 05:12:00,3.0,-2.0,30.37,WNW,284,3.0,10.0,80,0.00,,,0.00,,2013-01-20 11:12:00,
2013-01-20 05:22:00,3.0,-2.0,30.37,WNW,292,2.0,6.0,80,0.00,,,0.00,,2013-01-20 11:22:00,
2013-01-20 05:32:00,3.0,-2.0,30.37,NW,306,3.0,8.0,80,0.00,,,0.00,,2013-01-20 11:32:00,
2013-01-20 05:42:00,3.0,-2.0,30.37,NW,306,3.0,8.0,80,0.00,,,0.00,,2013-01-20 11:42:00,
2013-01-20 05:53:00,3.0,-2.0,30.37,NW,321,3.0,7.0,79,0.00,,,0.00,,2013-01-20 11:53:00,
2013-01-20 06:03:00,3.0,-2.0,30.37,NNW,329,3.0,10.0,79,0.00,,,0.00,,2013-01-20 12:03:00,
2013-01-20 06:12:00,3.0,-2.0,30.37,NNW,329,3.0,10.0,79,0.00,,,0.00,,2013-01-20 12:12:00,
2013-01-20 06:23:00,3.0,-2.0,30.38,West,280,2.0,10.0,79,0.00,,,0.00,,2013-01-20 12:23:00,
2013-01-20 06:33:00,3.0,-2.0,30.39,WNW,296,5.0,10.0,80,0.00,,,0.00,,2013-01-20 12:33:00,
2013-01-20 06:43:00,3.0,-2.0,30.39,WNW,296,5.0,10.0,80,0.00,,,0.00,,2013-01-20 12:43:00,
2013-01-20 06:53:00,3.0,-2.0,30.38,NW,321,2.0,8.0,80,0.00,,,0.00,,2013-01-20 12:53:00,
2013-01-20 07:02:00,3.0,-2.0,30.37,WNW,294,2.0,7.0,79,0.00,,,0.00,,2013-01-20 13:02:00,
2013-01-20 07:12:00,3.0,-2.0,30.37,WNW,294,2.0,7.0,79,0.00,,,0.00,,2013-01-20 13:12:00,
2013-01-20 07:23:00,3.0,-2.0,30.38,NW,311,2.0,10.0,80,0.00,,,0.00,,2013-01-20 13:23:00,
2013-01-20 07:33:00,4.0,-1.0,30.40,West,280,5.0,8.0,79,0.00,,,0.00,,2013-01-20 13:33:00,
2013-01-20 07:42:00,4.0,-1.0,30.40,West,280,5.0,8.0,79,0.00,,,0.00,,2013-01-20 13:42:00,
2013-01-20 07:53:00,4.0,-1.0,30.40,West,279,4.0,8.0,79,0.00,,,0.00,,2013-01-20 13:53:00,
2013-01-20 08:02:00,4.0,-1.0,30.40,NW,304,4.0,13.0,78,0.00,,,0.00,,2013-01-20 14:02:00,
2013-01-20 08:12:00,4.0,-1.0,30.40,NW,304,4.0,13.0,78,0.00,,,0.00,,2013-01-20 14:12:00,
2013-01-20 08:23:00,4.0,-1.0,30.40,West,274,3.0,10.0,79,0.00,,,0.00,,2013-01-20 14:23:00,
2013-01-20 08:33:00,4.0,-1.0,30.40,West,275,1.0,9.0,79,0.00,,,0.00,,2013-01-20 14:33:00,
2013-01-20 08:42:00,4.0,-1.0,30.40,West,275,1.0,9.0,79,0.00,,,0.00,,2013-01-20 14:42:00,
2013-01-20 08:53:00,5.0,0.0,30.41,West,275,3.0,9.0,78,0.00,,,0.00,,2013-01-20 14:53:00,
2013-01-20 09:03:00,5.0,-1.0,30.42,WNW,294,5.0,15.0,77,0.00,,,0.00,,2013-01-20 15:03:00,
2013-01-20 09:12:00,5.0,-1.0,30.42,WNW,294,5.0,15.0,77,0.00,,,0.00,,2013-01-20 15:12:00,
2013-01-20 09:23:00,5.0,-1.0,30.42,West,277,4.0,11.0,77,0.00,,,0.00,,2013-01-20 15:23:00,
2013-01-20 09:33:00,6.0,0.0,30.43,WNW,290,4.0,12.0,77,0.00,,,0.00,,2013-01-20 15:33:00,
2013-01-20 09:42:00,6.0,0.0,30.43,WNW,290,4.0,12.0,77,0.00,,,0.00,,2013-01-20 15:42:00,
2013-01-20 09:52:00,6.0,0.0,30.43,WNW,283,4.0,8.0,77,0.00,,,0.00,,2013-01-20 15:52:00,
2013-01-20 10:03:00,6.0,1.0,30.45,WNW,285,4.0,8.0,79,0.00,,,0.00,,2013-01-20 16:03:00,
2013-01-20 10:12:00,6.0,1.0,30.45,WNW,285,4.0,8.0,79,0.00,,,0.00,,2013-01-20 16:12:00,
2013-01-20 10:23:00,6.0,1.0,30.44,WNW,298,4.0,11.0,79,0.00,,,0.00,,2013-01-20 16:23:00,
2013-01-20 10:33:00,7.0,2.0,30.44,NW,325,3.0,8.0,81,0.00,,,0.00,,2013-01-20 16:33:00,
2013-01-20 10:43:00,7.0,2.0,30.44,NW,325,3.0,8.0,81,0.00,,,0.00,,2013-01-20 16:43:00,
2013-01-20 10:53:00,8.0,4.0,30.44,NW,322,2.0,8.0,82,0.00,,,0.00,,2013-01-20 16:53:00,
2013-01-20 11:03:00,8.0,3.0,30.45,WNW,286,2.0,9.0,81,0.00,,,0.00,,2013-01-20 17:03:00,
2013-01-20 11:12:00,8.0,3.0,30.45,WNW,286,2.0,9.0,81,0.00,,,0.00,,2013-01-20 17:12:00,
2013-01-20 11:22:00,8.0,3.0,30.45,WNW,294,6.0,18.0,79,0.00,,,0.00,,2013-01-20 17:22:00,
2013-01-20 11:33:00,8.0,3.0,30.45,WNW,301,4.0,13.0,80,0.00,,,0.00,,2013-01-20 17:33:00,
2013-01-20 11:42:00,8.0,3.0,30.45,WNW,301,4.0,13.0,80,0.00,,,0.00,,2013-01-20 17:42:00,
2013-01-20 11:53:00,9.0,4.0,30.45,WNW,288,5.0,14.0,81,0.00,,,0.00,,2013-01-20 17:53:00,
2013-01-20 12:03:00,8.0,3.0,30.45,WNW,292,7.0,18.0,80,0.00,,,0.00,,2013-01-20 18:03:00,
2013-01-20 12:12:00,8.0,3.0,30.45,WNW,292,7.0,18.0,80,0.00,,,0.00,,2013-01-20 18:12:00,
2013-01-20 12:23:00,8.0,3.0,30.44,WNW,294,7.0,22.0,79,0.00,,,0.00,,2013-01-20 18:23:00,
2013-01-20 12:33:00,9.0,5.0,30.43,WNW,298,4.0,13.0,82,0.00,,,0.00,,2013-01-20 18:33:00,
2013-01-20 12:43:00,9.0,5.0,30.43,WNW,298,4.0,13.0,82,0.00,,,0.00,,2013-01-20 18:43:00,
2013-01-20 12:53:00,9.0,4.0,30.42,West,277,5.0,19.0,78,0.00,,,0.00,,2013-01-20 18:53:00,
2013-01-20 13:02:00,10.0,5.0,30.41,West,281,4.0,14.0,80,0.00,,,0.00,,2013-01-20 19:02:00,
2013-01-20 13:12:00,10.0,5.0,30.41,West,281,4.0,14.0,80,0.00,,,0.00,,2013-01-20 19:12:00,
2013-01-20 13:22:00,10.0,4.0,30.41,NW,310,6.0,19.0,77,0.00,,,0.00,,2013-01-20 19:22:00,
2013-01-20 13:33:00,10.0,4.0,30.40,NW,323,8.0,21.0,77,0.00,,,0.00,,2013-01-20 19:33:00,
2013-01-20 13:42:00,10.0,4.0,30.40,NW,323,8.0,21.0,77,0.00,,,0.00,,2013-01-20 19:42:00,
2013-01-20 13:53:00,11.0,5.0,30.40,West,275,5.0,12.0,77,0.00,,,0.00,,2013-01-20 19:53:00,
2013-01-20 14:03:00,11.0,5.0,30.40,WNW,300,6.0,22.0,76,0.00,,,0.00,,2013-01-20 20:03:00,
2013-01-20 14:12:00,11.0,5.0,30.40,WNW,300,6.0,22.0,76,0.00,,,0.00,,2013-01-20 20:12:00,
2013-01-20 14:23:00,11.0,6.0,30.39,West,265,5.0,19.0,78,0.00,,,0.00,,2013-01-20 20:23:00,
2013-01-20 14:33:00,12.0,6.0,30.39,WNW,292,4.0,11.0,78,0.00,,,0.00,,2013-01-20 20:33:00,
2013-01-20 14:42:00,12.0,6.0,30.39,WNW,292,4.0,11.0,78,0.00,,,0.00,,2013-01-20 20:42:00,
2013-01-20 14:53:00,12.0,5.0,30.39,West,277,6.0,17.0,74,0.00,,,0.00,,2013-01-20 20:53:00,
2013-01-20 15:03:00,12.0,6.0,30.38,WNW,296,4.0,12.0,76,0.00,,,0.00,,2013-01-20 21:03:00,
2013-01-20 15:13:00,12.0,6.0,30.38,WNW,296,4.0,12.0,76,0.00,,,0.00,,2013-01-20 21:13:00,
2013-01-20 15:23:00,12.0,6.0,30.38,NW,315,5.0,16.0,75,0.00,,,0.00,,2013-01-20 21:23:00,
2013-01-20 15:33:00,12.0,5.0,30.37,West,279,6.0,17.0,74,0.00,,,0.00,,2013-01-20 21:33:00,
2013-01-20 15:43:00,12.0,5.0,30.37,West,279,6.0,17.0,74,0.00,,,0.00,,2013-01-20 21:43:00,
2013-01-20 15:53:00,12.0,6.0,30.37,NW,319,5.0,11.0,76,0.00,,,0.00,,2013-01-20 21:53:00,
2013-01-20 16:03:00,12.0,6.0,30.37,WNW,289,4.0,14.0,75,0.00,,,0.00,,2013-01-20 22:03:00,
2013-01-20 16:12:00,12.0,6.0,30.37,WNW,289,4.0,14.0,75,0.00,,,0.00,,2013-01-20 22:12:00,
2013-01-20 16:22:00,12.0,6.0,30.37,WNW,287,4.0,13.0,75,0.00,,,0.00,,2013-01-20 22:22:00,
2013-01-20 16:33:00,13.0,7.0,30.36,West,271,4.0,15.0,75,0.00,,,0.00,,2013-01-20 22:33:00,
2013-01-20 16:43:00,13.0,7.0,30.36,West,271,4.0,15.0,75,0.00,,,0.00,,2013-01-20 22:43:00,
2013-01-20 16:53:00,12.0,6.0,30.36,WNW,294,5.0,13.0,75,0.00,,,0.00,,2013-01-20 22:53:00,
2013-01-20 17:03:00,12.0,6.0,30.36,WNW,298,4.0,15.0,76,0.00,,,0.00,,2013-01-20 23:03:00,
2013-01-20 17:13:00,12.0,6.0,30.36,WNW,298,4.0,15.0,76,0.00,,,0.00,,2013-01-20 23:13:00,
2013-01-20 17:23:00,12.0,6.0,30.35,WNW,287,3.0,10.0,78,0.00,,,0.00,,2013-01-20 23:23:00,
2013-01-20 17:33:00,12.0,7.0,30.35,West,278,3.0,6.0,80,0.00,,,0.00,,2013-01-20 23:33:00,
2013-01-20 17:43:00,12.0,7.0,30.35,West,278,3.0,6.0,80,0.00,,,0.00,,2013-01-20 23:43:00,
2013-01-20 17:53:00,12.0,7.0,30.35,NW,304,3.0,14.0,80,0.00,,,0.00,,2013-01-20 23:53:00,
2013-01-20 18:03:00,12.0,7.0,30.35,NW,312,8.0,19.0,79,0.00,,,0.00,,2013-01-21 00:03:00,
2013-01-20 18:13:00,12.0,7.0,30.35,NW,312,8.0,19.0,79,0.00,,,0.00,,2013-01-21 00:13:00,
2013-01-20 18:22:00,12.0,7.0,30.35,WNW,295,7.0,21.0,80,0.00,,,0.00,,2013-01-21 00:22:00,
2013-01-20 18:33:00,11.0,6.0,30.35,NW,316,5.0,22.0,79,0.00,,,0.00,,2013-01-21 00:33:00,
2013-01-20 18:43:00,11.0,6.0,30.35,NW,316,5.0,22.0,79,0.00,,,0.00,,2013-01-21 00:43:00,
2013-01-20 18:53:00,11.0,6.0,30.35,NW,316,5.0,22.0,79,0.00,,,0.00,,2013-01-21 00:53:00,
2013-01-20 19:03:00,10.0,4.0,30.35,WNW,302,4.0,18.0,77,0.00,,,0.00,,2013-01-21 01:03:00,
2013-01-20 19:13:00,10.0,4.0,30.35,WNW,302,4.0,18.0,77,0.00,,,0.00,,2013-01-21 01:13:00,
2013-01-20 19:23:00,10.0,4.0,30.35,WNW,298,4.0,13.0,77,0.00,,,0.00,,2013-01-21 01:23:00,
2013-01-20 19:33:00,10.0,6.0,30.35,West,272,12.0,29.0,84,0.00,,,0.00,,2013-01-21 01:33:00,
2013-01-20 19:43:00,10.0,6.0,30.35,West,272,12.0,29.0,84,0.00,,,0.00,,2013-01-21 01:43:00,
2013-01-20 19:53:00,9.0,4.0,30.35,WNW,282,7.0,20.0,80,0.00,,,0.00,,2013-01-21 01:53:00,
2013-01-20 20:03:00,8.0,3.0,30.35,NW,306,7.0,20.0,78,0.00,,,0.00,,2013-01-21 02:03:00,
2013-01-20 20:12:00,8.0,3.0,30.35,NW,306,7.0,20.0,78,0.00,,,0.00,,2013-01-21 02:12:00,
2013-01-20 20:23:00,8.0,3.0,30.35,WNW,294,8.0,20.0,80,0.00,,,0.00,,2013-01-21 02:23:00,
2013-01-20 20:33:00,7.0,2.0,30.35,NW,307,8.0,23.0,78,0.00,,,0.00,,2013-01-21 02:33:00,
2013-01-20 20:43:00,7.0,2.0,30.35,NW,307,8.0,23.0,78,0.00,,,0.00,,2013-01-21 02:43:00,
2013-01-20 20:53:00,7.0,1.0,30.35,WNW,292,6.0,24.0,77,0.00,,,0.00,,2013-01-21 02:53:00,
2013-01-20 21:03:00,6.0,1.0,30.35,West,281,4.0,15.0,78,0.00,,,0.00,,2013-01-21 03:03:00,
2013-01-20 21:12:00,6.0,1.0,30.35,West,281,4.0,15.0,78,0.00,,,0.00,,2013-01-21 03:12:00,
2013-01-20 21:23:00,6.0,1.0,30.35,West,279,4.0,15.0,78,0.00,,,0.00,,2013-01-21 03:23:00,
2013-01-20 21:33:00,6.0,1.0,30.34,NW,304,4.0,14.0,78,0.00,,,0.00,,2013-01-21 03:33:00,
2013-01-20 21:43:00,6.0,1.0,30.34,NW,304,4.0,14.0,78,0.00,,,0.00,,2013-01-21 03:43:00,
2013-01-20 21:53:00,5.0,0.0,30.34,West,275,5.0,12.0,79,0.00,,,0.00,,2013-01-21 03:53:00,
2013-01-20 22:03:00,6.0,1.0,30.34,West,264,7.0,18.0,79,0.00,,,0.00,,2013-01-21 04:03:00,
2013-01-20 22:12:00,6.0,1.0,30.34,West,264,7.0,18.0,79,0.00,,,0.00,,2013-01-21 04:12:00,
2013-01-20 22:23:00,5.0,0.0,30.35,WNW,298,10.0,21.0,78,0.00,,,0.00,,2013-01-21 04:23:00,
2013-01-20 22:32:00,5.0,0.0,30.35,WNW,292,6.0,24.0,80,0.00,,,0.00,,2013-01-21 04:32:00,
2013-01-20 22:42:00,5.0,0.0,30.35,WNW,292,6.0,24.0,80,0.00,,,0.00,,2013-01-21 04:42:00,
2013-01-20 22:53:00,5.0,0.0,30.35,NW,321,5.0,25.0,78,0.00,,,0.00,,2013-01-21 04:53:00,
2013-01-20 23:03:00,4.0,-2.0,30.36,NNW,337,12.0,24.0,77,0.00,,,0.00,,2013-01-21 05:03:00,
2013-01-20 23:12:00,4.0,-2.0,30.36,NNW,337,12.0,24.0,77,0.00,,,0.00,,2013-01-21 05:12:00,
2013-01-20 23:22:00,4.0,-1.0,30.36,West,274,7.0,21.0,78,0.00,,,0.00,,2013-01-21 05:22:00,
2013-01-20 23:33:00,3.0,-2.0,30.36,WNW,297,4.0,9.0,80,0.00,,,0.00,,2013-01-21 05:33:00,
2013-01-20 23:42:00,3.0,-2.0,30.36,WNW,297,4.0,9.0,80,0.00,,,0.00,,2013-01-21 05:42:00,
2013-01-20 23:53:00,3.0,-3.0,30.36,WNW,290,5.0,18.0,77,0.00,,,0.00,,2013-01-21 05:53:00,